Location: Tamazert
(32.6352°N, 5.2072°W)
Time: 17:29:07
(UTC+00:00)

Courier 1B Rocket - Pass Details

Date: 06 October 2022
Orbit: 920 x 1202 km, 28.3° (Epoch: 01 December)

Event Time Altitude Azimuth Distance (km) Brightness Sun altitude
Rises 18:07:26 0° 248° (WSW) 3,908 10.0 -2.6°
Reaches altitude 10° 18:10:21 10° 244° (WSW) 2,907 8.9 -3.2°
Maximum altitude 18:17:11 52° 170° (S) 1,245 5.6 -4.6°
Drops below altitude 10° 18:23:33 10° 95° (E) 2,714 6.7 -5.9°
Enters shadow 18:24:19 - 94° (E) 2,979 6.9 -6.1°
